Flag for Germany Weather past 2 weeks in Mülheim / Ruhr, North Rhine-Westphalia, Germany

Now
52 °F

Sunny.


Feels Like: 50 °F
Forecast: 39 / 63 °F
Wind: 6 mph from Northeast

Location: Duesseldorf


UV Index: 3 (Moderate)

Visibility: 10 mi


Pressure: 30.33 "Hg

Humidity: 50%

Dew point: 34 °F

Location of Mülheim / RuhrLocation

Historic Weather in Mülheim / Ruhr

°F

Mülheim / Ruhr temperature yesterday

Maximum temperature yesterday: 52 °F (at 4:20 PM)
Minimum temperature yesterday: 39 °F (at 1:50 AM)
Average temperature yesterday: 45 °F

Past Weeks' High & Low Weather Summary

 TemperatureHumidityPressure
High72 °F (Apr 2, 1:20 PM)94% (Apr 5, 5:20 AM)30.45 "Hg (Apr 5, 5:20 AM)
Low30 °F (Apr 16, 4:50 AM)29% (Apr 16, 2:20 PM)29.59 "Hg (Apr 3, 1:50 PM)
Average54 °F67%30.02 "Hg
* Reported Apr 1 8:20 PM — Apr 16 8:50 PM, Mülheim / Ruhr, Weather by CustomWeather, © 2014

Note: Actual official high and low records may vary slightly from our data, if they occured in-between our weather recording intervals... More about our weather records

Advertising

Historic Weather Conditions — Data for Previous 24 hours

 ConditionsComfort  
Time TempWeatherWind HumidityBarometerVisibility
8:50 PM
Apr 16
52 °FSunny.3 mph50%30.33 "Hg10 mi
8:20 PM55 °FSunny.5 mph41%30.33 "Hg10 mi
7:50 PM57 °FSunny.3 mph36%30.33 "Hg10 mi
7:20 PM59 °FSunny.5 mph31%30.33 "Hg10 mi
6:50 PM59 °FSunny.3 mph31%30.33 "Hg10 mi
6:20 PM59 °FSunny.6 mph29%30.33 "Hg10 mi
5:50 PM59 °FSunny.3 mph31%30.36 "Hg10 mi
5:20 PM59 °FPassing clouds.5 mph29%30.36 "HgN/A
4:50 PM59 °FPassing clouds.5 mph29%30.36 "HgN/A
4:20 PM59 °FSunny.3 mph31%30.39 "Hg10 mi
3:50 PM59 °FSunny.5 mph31%30.39 "Hg10 mi
3:20 PM59 °FSunny.2 mph29%30.39 "Hg10 mi
2:50 PM57 °FPassing clouds.5 mph29%30.39 "HgN/A
2:20 PM57 °FPassing clouds.5 mph29%30.42 "HgN/A
1:50 PM57 °FSunny.7 mph36%30.42 "Hg10 mi
1:20 PM55 °FSunny.7 mph41%30.42 "Hg10 mi
12:50 PM55 °FSunny.7 mph38%30.42 "Hg10 mi
12:20 PM54 °FSunny.7 mph41%30.42 "Hg10 mi
11:50 AM54 °FPassing clouds.5 mph38%30.45 "HgN/A
11:20 AM52 °FPassing clouds.3 mph44%30.45 "HgN/A
10:50 AM50 °FPassing clouds.2 mph50%30.45 "HgN/A
10:20 AM50 °FSunny.6 mph58%30.45 "Hg10 mi
9:50 AM46 °FSunny.3 mph66%30.45 "Hg10 mi
9:20 AM45 °FSunny.5 mph66%30.45 "Hg10 mi
8:50 AM43 °FSunny.5 mph76%30.45 "Hg10 mi
8:20 AM37 °FSunny.5 mph87%30.45 "Hg10 mi
7:50 AM34 °FSunny.8 mph87%30.45 "Hg10 mi
7:20 AM30 °FClear.7 mph93%30.42 "Hg10 mi
6:50 AM30 °FClear.5 mph93%30.42 "Hg10 mi
6:20 AM30 °FClear.5 mph93%30.42 "Hg10 mi
5:50 AM30 °FFog.2 mph93%30.42 "HgN/A
5:20 AM30 °FClear.3 mph93%30.42 "Hg10 mi
4:50 AM30 °FClear.6 mph93%30.42 "Hg10 mi
4:20 AM32 °FClear.5 mph87%30.42 "Hg10 mi
3:50 AM32 °FClear.3 mph87%30.42 "Hg10 mi
3:20 AM34 °FClear.5 mph93%30.42 "Hg10 mi
2:50 AM34 °FClear.2 mph81%30.39 "Hg10 mi
1:50 AM36 °FClear.2 mph81%30.39 "Hg10 mi
12:50 AM39 °FPassing clouds.6 mph75%30.39 "HgN/A
12:20 AM41 °FPassing clouds.7 mph70%30.39 "HgN/A
11:50 PM
Apr 15
41 °FPassing clouds.6 mph70%30.39 "HgN/A
11:20 PM43 °FPassing clouds.7 mph66%30.36 "HgN/A
10:50 PM43 °FPassing clouds.7 mph66%30.36 "HgN/A
10:20 PM45 °FPassing clouds.8 mph61%30.36 "HgN/A
9:50 PM45 °FPassing clouds.8 mph61%30.36 "HgN/A
9:20 PM46 °FScattered clouds.10 mph57%30.36 "HgN/A
Weather by CustomWeather, © 2014

See weather overview